Warning: session_start(): open(/var/cpanel/php/sessions/alt-php70/sess_a250f4ca005c99e3b5ca7e89405a35d3, O_RDWR) failed: No such file or directory (2) in /home/flycra/public_html/airport_info.php on line 6

Warning: session_start(): Failed to read session data: files (path: /var/cpanel/php/sessions/alt-php70) in /home/flycra/public_html/airport_info.php on line 6
Ticos Airways Virtual
Search flights

Juan Santamaria Intl Airport, San Jose (MROC)

Airport Weather & NOTAM's

METAR for:MROC (San José/Santamaria Arpt, A, CR)
Text:MROC 140400Z 10020G33KT CAVOK 23/16 A3005 NOSIG
Conditions at:0400 UTC 14 Apr 2024
Temperature: 23.0°C ( 73°F)
Dewpoint: 16.0°C ( 61°F) [RH = 65%]
Pressure (altimeter):30.05 inches Hg (1017.7 mb)
Winds:from the E (100 degrees) at 23 MPH (20 knots; 10.3 m/s) gusting to 38 MPH (33 knots; 17.0 m/s)
Visibility:6 or more sm (10+ km)
Ceiling:ceiling and visibility are OK
Clouds:unknown
TAF for:MROC (San José/Santamaria Arpt, A, CR) issued at 2350 UTC 13 Apr 2024
Text:MROC 132350Z 1400/1424 08020G32KT 9999 FEW030 TX31/1419Z TN21/1411Z
Forecast period:0000 UTC 14 April 2024 to 0000 UTC 15 April 2024
Forecast type:FROM: standard forecast or significant change
Winds:from the E (80 degrees) at 23 MPH (20 knots; 10.3 m/s) gusting to 37 MPH (32 knots; 16.5 m/s)
Visibility:6 or more sm (10+ km)
Ceiling:at least 12,000 feet AGL
Clouds:few clouds at 3000 feet AGL
Temperature: 0°C at 0459 UTC 14 Apr 2024
Temperature: 0°C at 0459 UTC 14 Apr 2024

Live Departures & Arrivals

There are currently no arrivals or departures for this airport.

Departures History (last 12 months)

Flight No. Dest. Aircraft Date
{}N634SB UUWW ToLissA346... 2024-03-16 03:51:23
93 SKBQ PMDG 737-6... 2024-03-16 01:35:01
{}N618SB SEQM Flight Fac... 2024-03-15 18:08:33
CRABTR03 SKBO 737NG Seri... 2024-03-12 22:31:13
{}N319SB SPZO ToLiss - A... 2024-03-06 20:56:16
CRA718 MMUN ToLissA320... 2024-03-05 23:47:59
CRA036 MMUN ToLissA321... 2024-03-05 00:26:33
CRA030 MMUN Ticos Airw... 2024-03-05 00:43:49
CRAAOT001 MMUN Airbus A31... 2024-03-04 23:06:17
85 MPTO PMDG 737-6... 2024-03-04 03:17:14
CRA3016 KMCO Fenix A320... 2024-03-03 17:08:20
80 MPTO PMDG 737-6... 2024-02-29 02:10:17
CRA030 SEQM Airbus A34... 2024-02-26 21:42:13
9936 SEQM ToLiss A34... 2024-02-26 20:35:04
BBJ036 MHTG PMDG 737-7... 2024-02-25 03:36:14
{}N299SB MUHA 727_Series... 2024-02-24 01:25:53
{}N299SB SEQM 727_Series... 2024-02-18 02:19:54
{}N299SB SVMI 727_Series... 2024-02-17 17:37:08
727 SVMI 727_Series... 2024-02-17 17:40:25
CRA030 MPTO B744 TICOS 2024-02-15 03:06:26
036 MHRO FlyJSim B7... 2024-02-14 22:14:37
UCG846 SVMI 727_Series... 2024-02-12 01:04:34
CRA030 SKCL B737-800X... 2024-02-12 23:39:50
036 SKBO FF767 767... 2024-02-11 23:50:02
CRA023 MPBO Thranda_C2... 2024-02-03 18:53:38
58 MPTO PMDG 737-6... 2024-02-03 03:15:45
55 MPTO PMDG 737-6... 2024-01-29 03:18:03
{}N201SB MHRO Carenado B... 2024-01-27 21:12:00
VIP16 TNCM A319 M-KAT... 2024-01-21 19:10:11
CRA781 MHTG FlyJSim_Q4... 2024-01-17 18:11:55
CRA023 SEQM Flight Fac... 2024-01-06 15:18:43
{}N307SB SEQM A300 Freig... 2023-12-30 01:51:12
CRA030 CYQB B737-800X_... 2023-12-28 17:57:27
CRACC001 MNMG Carenado C... 2023-12-26 23:06:42
CRACRA SKCL B737-800X_... 2023-12-25 02:17:00
CRACC001 MNMG Cessna Gra... 2023-12-24 16:47:33
41 MPTO PMDG 737-6... 2023-12-21 03:16:02
{}N618SB SEQM Flight Fac... 2023-12-15 16:49:16
BTR03 SKBO PMDG 737-7... 2023-12-11 13:43:27
BTR02 SEQM PMDG 737-7... 2023-12-10 15:40:43
BTR01 MHTG PMDG 737-8... 2023-12-10 14:08:46
CRABTR03 SKBO B737-800X... 2023-12-08 00:19:42
CRABTR02 SEQM B737-800X... 2023-12-07 22:43:42
CRA315 SEQM Boeing767-... 2023-12-05 22:12:12
{}N806SB MPTO PMDG 737-8... 2023-12-03 00:43:44
CRA030 SKBO B737-800X... 2023-12-01 01:40:26
CRABTR01 MHTG B737-800X... 2023-11-27 22:14:44
CRABTR01 MHTG B737-800X... 2023-11-26 21:34:12
{}N714SB MGGT PMDG 737-7... 2023-11-24 15:16:32
{}N800SB MMUN PMDG 737-8... 2023-11-18 19:20:01
{}N714SB KHND PMDG 737-7... 2023-11-18 21:34:01
CC001 MNMG C208B Gran... 2023-11-18 02:24:25
036 MPTO FF767 767... 2023-11-14 06:18:47
CRACC001 MNMG Carenado C... 2023-11-12 05:17:13
{}N714SB SBGR PMDG 737-7... 2023-11-04 19:36:44
CRACC001 MNMG FedEx 2023-10-29 23:52:02
{}N017SB MPBO Thranda_C2... 2023-10-28 15:11:47
CRA876 MNMG 767 SF UPS 2023-10-26 20:49:54
CRA030 SPJC B737-800X... 2023-10-18 17:37:27
CDS01 MPTO B737-800X... 2023-10-17 19:19:00
CRA030 MZBZ B737-800X... 2023-10-12 00:35:46
AOT001 MMUN PMDG 737-7... 2023-10-10 12:06:50
CC001 MNMG Cessna 208... 2023-10-08 23:35:35
CC001 MNMG Carenado C... 2023-10-06 02:03:58
CC001 MNMG Carenado C... 2023-10-06 02:12:39
036 MNMG AzurPoly C... 2023-10-02 03:17:31
CRA023 SVMI IXEG 737 C... 2023-09-29 17:29:50
CRA1087 MPTO PMDG 737-8... 2023-09-28 04:29:57
CRA1263 SKSP ToLissA320... 2023-09-27 18:41:10
CRA023 SKSP IXEG 737 C... 2023-09-27 01:43:50
CRA1087 MPTO ToLissA320... 2023-09-22 03:36:41
CRA060 MPTO FenixA320... 2023-09-18 03:12:20
CRABTR03 SKBO B737-800X... 2023-09-14 18:25:50
CRABTR02 SEQM B737-800X... 2023-09-09 01:04:48
036 MRLB Just Fligh... 2023-09-05 06:45:28
{}N771SB MUHA GLF550_2.0... 2023-09-04 01:26:38
CRABTR01 MHTG AXP Qantas... 2023-08-29 21:47:53
CRA060 CYYZ Boeing757-... 2023-08-27 23:13:07
CRACDS01 MPTO B737-800X... 2023-08-22 21:00:49
CRA060 KFLL PMDG 737-6... 2023-08-22 21:01:25
CRA028 MPTO Airbus A32... 2023-08-22 03:34:08
CRA060 KFLL PMDG 737-6... 2023-08-19 23:38:15
CRA060 CYYZ PMDG 737-6... 2023-08-18 07:37:45
CRA003 MNMG Cessna 208... 2023-08-13 18:35:43
CRAAOT001 MMUN B737-800X... 2023-08-12 17:05:33
CRA003 MRLB Cessna 208... 2023-08-06 15:50:08
CRA134 MHTG B737-800X... 2023-08-05 16:14:39
33 MPTO PMDG 737-7... 2023-07-24 01:56:40
BTR03 SKBO B737-800X... 2023-07-21 14:27:07
CRAAOT001 MMUN Boeing767-... 2023-07-17 16:33:29
CRA134 KLAX AirbusA350... 2023-07-17 19:39:12
{}N882SB TIST McDonnell... 2023-07-16 21:03:03
AOT001 MMUN FenixA320_... 2023-07-15 16:01:42
{}N806SB MSLP B737-800X... 2023-07-14 00:52:26
{}N744AF MWCR Cessna Cit... 2023-07-08 01:08:05
{}N023CR MWCR X-Crafts -... 2023-07-08 00:46:10
CRA2447 MWCR X-Crafts -... 2023-07-08 01:05:00
888 MWCR GLF550_1.1... 2023-07-08 00:41:10
AOT001 MMUN Boeing B73... 2023-07-07 22:41:08
26 MPTO PMDG 737-7... 2023-07-07 01:30:42
BTR02 SEQM Boeing B73... 2023-07-06 15:08:45
BTR02 SEQM B737-800X... 2023-07-05 19:15:35
BTR01 MHTG B737-800X... 2023-07-05 01:04:50
BTR03 SKBO PMDG 737-8... 2023-07-02 15:51:01
CRA1269 MRLM Cessna 208... 2023-07-01 03:35:56
BTR02 SEQM PMDG 737-8... 2023-07-01 00:00:58
{}CRA001 MHTG B737-800X... 2023-06-30 02:27:48
CRABTR01 MHTG B737-800X... 2023-06-30 19:29:16
CRA1321 MHTG B737-800X... 2023-06-30 03:01:33
CRA0211 MHTG Boeing B73... 2023-06-30 02:12:11
BTR03 SKBO Boeing B73... 2023-06-29 17:55:24
CRA2199 MRLB Cessna 208... 2023-06-27 02:59:43
CRA019 SKCG Airbus A31... 2023-06-23 06:07:05
AOT001 MMUN Flight Fac... 2023-06-23 18:22:10
BTR01 MHTG PMDG 737-8... 2023-06-21 23:48:29
CRA019 SPJC Airbus A31... 2023-06-17 17:10:06
CRA019 MHTG Airbus A31... 2023-06-17 01:26:12
CRA009 MHTG B737-800X... 2023-06-17 01:49:48
{}N618SB KMIA Flight Fac... 2023-06-16 01:11:34
CRA155 MHTG Boeing 737... 2023-06-16 01:30:01
CRA019 MHTG Airbus A31... 2023-06-16 00:42:04
BTR01 MHTG Boeing B73... 2023-06-15 19:53:06
CRABTR03 SKBO B737-800X... 2023-06-14 02:34:06
CRABTR02 SEQM B737-800X... 2023-06-14 21:51:37
CRA019 SKBO Airbus A31... 2023-06-14 06:34:57
CRABTR01 MHTG B737-800X... 2023-06-13 19:58:17
CDS01 MPTO Flight Fac... 2023-06-13 02:42:17
CRA718 MPTO Flight Fac... 2023-06-12 21:05:13
CRA045 MNMG Aerosoft A... 2023-06-10 04:02:50
023 MNMG Flight Fac... 2023-06-10 03:34:39
TICOS AIRWAYS VIRTUA MPTO PMDG 737-8... 2023-06-08 15:33:55
TICOS AIRWAYS VIRTUA MPTO ToLiss - A... 2023-06-07 12:34:30
CRA019 MPTO Boeing 737... 2023-06-07 06:45:33
CRA1087 MPTO B738 2023-06-06 12:00:00
CRA1087 MPTO PMDG 737-8... 2023-06-05 19:23:55
CDS01 MPTO PMDG 737-8... 2023-06-05 19:48:43
TICOS AIRWAYS VIRTUA MPTO Flight Fac... 2023-06-04 17:15:47
TICOS AIRWAYS VIRTUA MPTO Flight Fac... 2023-06-04 00:56:33
TICOS AIRWAYS VIRTUA MPTO [CFM] Tico... 2023-06-04 23:55:11
CDS01 MPTO PMDG 737-8... 2023-06-04 21:16:30
CDS01 MPTO PMDG 737-8... 2023-06-04 23:44:59
CRA1087 MPTO B 738 2023-06-03 12:00:00
TICOS AIRWAYS VIRTUA MPTO B737-800X... 2023-06-02 01:47:06
CDS01 MPTO PMDG 737-7... 2023-06-02 02:37:58
CDS01 MPTO Rotate-MD-... 2023-06-02 01:24:05
TICOS AIRWAYS VIRTUA MPTO PMDG 737-8... 2023-06-01 19:46:19
TICOS AIRWAYS VIRTUA MPTO FlightFact... 2023-06-01 15:55:11
CRA060 KFLL Boeing 777... 2023-06-01 03:02:11
CDS01 MPTO Boeing767-... 2023-06-01 21:00:50
20 SKBQ PMDG 737-7... 2023-05-25 02:07:39
TICCRA1087 MPTO A319 Tolis... 2023-05-22 02:34:42
CRA3551 SLVR AN225 2023-05-23 12:00:00
{}N806SB SCEL B737-800X... 2023-05-14 20:43:12
VIP504 MRCH Bonanza G3... 2023-05-12 00:49:46
CRA2476 MMMX B737-800 2023-05-11 01:00:00
CRA1004 MRTR Cessna 208... 2023-05-11 16:33:15
{}N023CR SEQM Rotate-MD-... 2023-05-06 00:38:41
CRA030 MPTO Airbus A32... 2023-04-29 00:49:28
TICOS AIRWAYS VIRTUA MPTO Boeing 737... 2023-04-16 21:28:25
{}N882SB MMMX Fly The Ma... 2023-04-15 16:19:04

Arrivals History (last 12 months)

Flight No. Origin Aircraft Date
CRA023 SKBG ToLiss - A... 2024-03-05 19:52:46
1ST SKBG PMDG 737-7... 2024-03-05 19:37:27
CRA718 MPTO Flight Fac... 2024-03-04 03:36:09
CRA030 MPTO B737-800X... 2024-03-04 02:28:47
CRA1313 KDEN PMDG 737-8... 2024-03-03 23:35:29
CRACC012 MPTO Carenado C... 2024-02-28 00:39:51
{}N299SB MWCR 727_Series... 2024-02-24 00:03:38
CRA3016 SKSP Airbus A32... 2024-02-22 04:16:05
CRA3078 SLVR FenixA320_... 2024-02-21 22:08:11
{}N299SB MUHA 727_Series... 2024-02-18 01:51:46
CRA036 MUHA 727_Series... 2024-02-18 02:07:18
{}N299SB MKJP 727_Series... 2024-02-17 16:24:53
{}N116SB SKBO Rotate-MD-... 2024-02-11 05:29:58
CRA030 SKCL B737-800X... 2024-02-11 06:02:29
CRA1307 MHRO Airbus A31... 2024-01-29 23:14:45
{}N618SB SCEL Flight Fac... 2024-01-27 01:58:16
{}N310SB MSSS Piper PA-3... 2024-01-27 20:02:34
CRA013 MRLB Quest_Kodi... 2024-01-18 01:59:46
CRA912 MPTO FlyJSim_Q4... 2024-01-15 23:50:33
CRA023 SCEL Flight Fac... 2024-01-13 05:29:41
{}N538SB TJSJ Flight Fac... 2024-01-06 03:27:49
{}N771SB MGGT GLF550_2.0... 2023-12-30 01:19:23
3910 MMMX GLF5 FAM39... 2023-12-30 01:17:28
VIP504 MHTG Airbus A32... 2023-12-27 02:00:18
CRA3008 KMSY Airbus A33... 2023-12-24 03:03:17
CRA456 SKSP Boeing767-... 2023-12-04 19:25:41
CC012 MPTO C208B Gran... 2023-12-01 05:24:49
CDS13 SVMI B737-800X... 2023-11-23 00:13:09
CRACC012 MPTO Carenado C... 2023-11-15 01:54:10
CRA023 KMIA Flight Fac... 2023-11-12 01:27:52
CRA023 KLAS PMDG 737-7... 2023-11-10 22:25:04
AOT010 SKBQ PMDG 737-7... 2023-11-10 17:58:26
{}N714SB MMUN PMDG 737-7... 2023-11-04 19:12:30
CRACC012 MPTO Thranda 2023-11-04 21:01:12
{}N714SB SKBO PMDG 737-7... 2023-11-03 19:26:58
{}N714SB MMMX PMDG 737-7... 2023-10-30 05:22:37
{}N017SB MPBO Thranda_C2... 2023-10-28 18:01:44
CRA030 SKSM Boeing B73... 2023-10-28 02:38:05
CC012 MPTO Thranda_C2... 2023-10-28 04:14:33
CRA456 MPTO 757 Jet2.c... 2023-10-26 20:36:14
CC012 MPTO Cessna 208... 2023-10-21 17:51:32
CC012 MPTO Carenado C... 2023-10-15 03:32:46
{}N017SB MNMG Carenado C... 2023-10-13 03:43:02
CRA030 MZBZ B737-800X... 2023-10-13 04:23:45
{}N538SB KMIA Flight Fac... 2023-10-07 02:43:26
TPA023 SKBO Flight Fac... 2023-10-03 03:59:18
{}N372SB MMUN IXEG 737 C... 2023-09-30 23:42:07
CRA1112 SKSP ToLissA320... 2023-09-29 02:56:17
{}N7835U MMIT GLF550_2.0... 2023-09-26 23:11:31
{}N372SB SEQM IXEG 737 C... 2023-09-26 05:20:58
{}N201SB MSSS Carenado B... 2023-09-20 05:00:52
CRA060 KFLL FenixA320... 2023-09-18 00:36:25
{}N771SB MNMG GLF550_2.0... 2023-09-16 04:31:01
CRA013 MNMG Carenado -... 2023-09-16 04:27:37
CRA498 SKBO B737-800X... 2023-09-11 20:04:50
CRA567 SEQM Boeing 737... 2023-09-09 18:35:22
{}N771SB MMUN GLF550_2.0... 2023-09-06 04:06:33
CRA789 SKCL B737-800X... 2023-09-06 20:53:46
CRA001 MZBZ PMDG 737-8... 2023-09-06 04:23:42
12LA MMUN GLF550_1.1... 2023-09-06 04:06:47
036 MPTO Just Fligh... 2023-09-04 22:38:32
{}N771SB MPTO GLF550_2.0... 2023-09-03 02:53:42
CRA060 KFLL PMDG 737-6... 2023-08-30 10:08:56
CRAAOT010 SKBQ Boeing767-... 2023-08-25 02:27:55
VIP504 MHTG Airbus A32... 2023-08-23 01:24:15
CRA060 KFLL PMDG 737-6... 2023-08-21 16:37:47
CRA060 CYYZ PMDG 737-6... 2023-08-18 23:26:56
AOT010 SKBQ PMDG 737-8... 2023-08-14 22:21:13
003 MHRO Cessna 208... 2023-08-14 03:22:10
RZ1061 MNMG Carenado C... 2023-08-09 02:16:28
AOT010 SKBQ Flight Fac... 2023-08-03 17:22:48
CRA120 MMUN Boeing B77... 2023-07-29 19:14:35
CRA030 SBBE B737-800X... 2023-07-26 04:39:06
CRA030 TXKF B737-800X... 2023-07-24 05:04:53
CRA030 TNCM B737-800X... 2023-07-16 05:55:19
023 MRPV Carenado C... 2023-07-15 02:07:29
CRA0335 MRQP Quest_Kodi... 2023-07-07 03:44:02
1000 MRLB Carenado C... 2023-07-05 03:53:01
{}N737CR SKBO B737-800X... 2023-07-04 05:30:29
CRA030 MHTG B737-800X... 2023-07-03 00:46:28
CDS13 SVMI PMDG 737-7... 2023-07-02 17:42:10
CRA134 SEQM ToLissA320... 2023-06-24 01:57:25
CRA030 LPLA ToLissA346... 2023-06-22 04:58:50
CRA023 MGGT Boeing 727... 2023-06-21 04:45:55
CDS13 SVMI FenixA320_... 2023-06-18 18:28:27
CRACDS13 SVMI ToLiss - A... 2023-06-15 01:03:17
CRA019 MMMX NA 2023-06-14 01:01:37
CRA013 MRQP Let L-410... 2023-06-14 22:45:05
{}N618SB MMMX Flight Fac... 2023-06-11 00:28:14
CDS13 SVMI Flight Fac... 2023-06-10 02:46:12
TICOS AIRWAYS VIRTUA SVMI FlightFact... 2023-06-04 23:14:53
TICCDS13 SVMI FlightFact... 2023-06-04 18:28:55
CDS13 SVMI PMDG 737-8... 2023-06-04 23:11:22
CRA3078 SLVR PMDG 737-8... 2023-06-01 04:36:25
{}N806SB MMUN B737-800X... 2023-05-27 03:34:10
CRA023 SEQM Rotate-MD-... 2023-05-26 23:11:31
{}N619SB SEQM Flight Fac... 2023-05-22 03:55:21
TICOS AIRWAYS VIRTUA MNMG B737-800X... 2023-05-17 03:39:33
{}N645GT MMMX Flight Fac... 2023-05-13 20:23:12
{}CRA001 MSLP B737-800X... 2023-05-12 23:15:54
{}N115SB SEQM Rotate-MD-... 2023-05-06 17:20:19
023 MRPJ C208B Gran... 2023-05-06 22:58:40
023 MNMG C208B Gran... 2023-04-29 22:12:47
CRA3006 KTPA FenixA320_... 2023-04-24 00:28:40
CRA030 SKSP Aerosoft D... 2023-04-20 23:41:02
CRA030 MRFG Aerosoft D... 2023-04-17 23:05:04
CRA009 MNMG Thranda_C2... 2023-04-17 02:17:33
TICOS AIRWAYS VIRTUA SEGU Boeing 737... 2023-04-16 16:35:12
{}N501MD MSLP Fly The Ma... 2023-04-15 05:05:12
CRA2482 MSLP B737-800X... 2023-04-15 20:00:02

Runway Information (Airport elevation: 2,984ft)

Runway 07 Length 9,889ft Width 146ft Elevation 2,984ft Surface Bituminous Heading 69
Runway 25 Length 9,889ft Width 146ft Elevation 2,984ft Surface Bituminous Heading 249

Airport Frequencies

Type CTR Frequency 119.600 Mhz
Type CTR Frequency 128.900 Mhz
Type APP/DEP Frequency 120.500 Mhz
Type APP/DEP Frequency 129.500 Mhz
Type ATIS Frequency 127.675 Mhz
Type Clearance Frequency 121.300 Mhz
Type Clearance Frequency 121.900 Mhz
Type Tower Frequency 120.500 Mhz
Type Ground Frequency 121.900 Mhz
Type FSS Frequency 126.800 Mhz
Type Tower Frequency 118.600 Mhz
Type Ground Frequency 121.900 Mhz

Airport Navaids

Type NDB Ident HOR Frequency 260 Khz
Type VOR-DME Ident TIO Frequency 115700 Khz